Zurück zum Katalog

YAOGAN-43 O1J

AktivMilitärVLEO
NORAD 60466·PAYLOAD·🇨🇳 China

Gestartet Aug 16, 2024 von Xichang Satellite Launch Center

Loading…

Nächste Überflüge (nächste 24 Stunden)

TLE

AktuellSource: Space-Track

Epoche: Sep 14, 2026, 12:35 UTC

1 60466U 24148J   26257.52487839  .00010993  00000-0  28230-3 0  9999
2 60466  34.9909 279.3012 0005959 355.8890   4.1779 15.38469791116197

Verfolge YAOGAN-43 O1J in Echtzeit mit AllMySat

Download on the App Store